West Tisbury, MA

10:58 PM EDT on September 25, 2016 (GMT -0400)
Martha's Vineyard

Weather History for KMVY - July, 2014

Change the Weather History Date:

Monday, July 7, 2014

  Actual Average Record
Temperature  
Mean Temperature 68 °F -  
Max Temperature 73 °F 76 °F 91 °F (1952)
Min Temperature 64 °F 58 °F 44 °F (1998)
Cooling Degree Days 4    
Growing Degree Days 18 (Base 50)    
Moisture  
Dew Point 64 °F    
Average Humidity 84    
Maximum Humidity 97    
Minimum Humidity 73    
Precipitation  
Precipitation 0.00 in - - ()
Sea Level Pressure  
Sea Level Pressure 29.87 in    
Wind  
Wind Speed 13 mph (SW)    
Max Wind Speed 23 mph    
Max Gust Speed 38 mph    
Visibility 9 miles    
Events      
Averages and records for this station are not official NWS values.
T = Trace of Precipitation, MM = Missing Value Source: NWS Daily Summary

Daily Weather History Graph

Daily Weather History Graph

Search for Another Location

Airport or City:

Trip Planner

Search our weather history database for the weather conditions in past years. The results will help you decide how hot, cold, wet, or windy it might be!

Date:

Astronomy

Jul. 07, 2014 Rise Set
Actual Time 5:16 AM EDT 8:18 PM EDT
Civil Twilight 4:42 AM EDT 8:51 PM EDT
Nautical Twilight 4:00 AM EDT 9:34 PM EDT
Astronomical Twilight 3:09 AM EDT 10:24 PM EDT
Moon 3:16 PM EDT (7/7) 1:09 AM EDT (7/7)
Length of Visible Light 16h 08m
Length of Day
15h 02m
Waxing Gibbous, 72% of the Moon is Illuminated
Jul 7
Waxing Gibbous
Jul 12
Full
Jul 18
Last Quarter
Jul 26
New
Aug 3
First Quarter

Hourly Weather History & Observations

Time (EDT) Temp. Dew Point Humidity Pressure Visibility Wind Dir Wind Speed Gust Speed Precip Events Conditions
12:53 AM 64.9 °F 59.0 °F 81% 29.95 in 10.0 mi WSW 11.5 mph - N/A   Clear
1:53 AM 64.9 °F 59.0 °F 81% 29.94 in 10.0 mi SW 10.4 mph - N/A   Clear
2:53 AM 64.0 °F 59.0 °F 84% 29.93 in 10.0 mi SW 8.1 mph 17.3 mph N/A   Clear
3:53 AM 64.0 °F 59.0 °F 84% 29.92 in 10.0 mi SW 10.4 mph - N/A   Clear
4:53 AM 64.9 °F 60.1 °F 84% 29.91 in 10.0 mi SW 10.4 mph - N/A   Clear
5:53 AM 64.0 °F 61.0 °F 90% 29.92 in 10.0 mi SW 10.4 mph - N/A   Clear
6:53 AM 66.0 °F 62.1 °F 87% 29.91 in 10.0 mi SW 9.2 mph - N/A   Clear
7:53 AM 68.0 °F 63.0 °F 84% 29.92 in 10.0 mi SW 13.8 mph - N/A   Mostly Cloudy
8:53 AM 70.0 °F 64.0 °F 81% 29.91 in 10.0 mi SW 12.7 mph 23.0 mph N/A   Mostly Cloudy
9:53 AM 69.1 °F 64.0 °F 84% 29.90 in 10.0 mi SW 13.8 mph - N/A   Mostly Cloudy
10:53 AM 70.0 °F 64.9 °F 84% 29.88 in 10.0 mi SSW 15.0 mph 25.3 mph N/A   Mostly Cloudy
11:53 AM 72.0 °F 64.9 °F 78% 29.88 in 10.0 mi SW 20.7 mph 28.8 mph N/A   Mostly Cloudy
12:53 PM 73.0 °F 64.9 °F 76% 29.86 in 10.0 mi SSW 23.0 mph 32.2 mph N/A   Clear
1:53 PM 73.9 °F 64.9 °F 73% 29.84 in 10.0 mi SSW 19.6 mph 29.9 mph N/A   Clear
2:53 PM 73.9 °F 64.9 °F 73% 29.83 in 10.0 mi SSW 19.6 mph 38.0 mph N/A   Clear
3:53 PM 73.0 °F 66.0 °F 79% 29.81 in 10.0 mi SSW 20.7 mph 31.1 mph N/A   Clear
4:53 PM 72.0 °F 66.0 °F 81% 29.80 in 10.0 mi SSW 20.7 mph 32.2 mph N/A   Clear
5:53 PM 70.0 °F 66.0 °F 87% 29.79 in 9.0 mi SSW 23.0 mph 29.9 mph N/A   Clear
6:53 PM 69.1 °F 66.0 °F 90% 29.79 in 8.0 mi SSW 12.7 mph 24.2 mph N/A   Partly Cloudy
7:53 PM 68.0 °F 66.0 °F 93% 29.80 in 6.0 mi SSW 13.8 mph - N/A   Clear
8:53 PM 66.9 °F 66.0 °F 97% 29.81 in 6.0 mi SSW 12.7 mph - N/A   Clear
9:53 PM 66.9 °F 64.9 °F 93% 29.83 in 6.0 mi SW 13.8 mph - N/A   Clear
10:53 PM 68.0 °F 64.9 °F 90% 29.83 in 8.0 mi SW 11.5 mph - N/A   Clear
11:53 PM 69.1 °F 66.0 °F 90% 29.83 in 9.0 mi SW 11.5 mph 19.6 mph N/A   Clear